Weather History for Fountain Dale, PA

Change the Weather History Date:

Wednesday, January 23, 2013

  Actual Average (KHGR) Record (KHGR)
Temperature  
Mean Temperature 16 °F -  
Max Temperature 21 °F 34 °F 59 °F (1999)
Min Temperature 10 °F 20 °F 4 °F (2014)
Degree Days  
Heating Degree Days 50    
Moisture  
Dew Point -2 °F    
Average Humidity 47    
Maximum Humidity 59    
Minimum Humidity 35    
Precipitation  
Precipitation 0.00 in - - ()
Sea Level Pressure  
Sea Level Pressure 30.26 in    
Wind  
Wind Speed 3 mph (WSW)    
Max Wind Speed 10 mph    
Max Gust Speed 18 mph    
Visibility 10 miles    
Events      
Averages and records for this station are not official NWS values.
T = Trace of Precipitation, MM = Missing Value Source: NWS Daily Summary

Daily Weather History Graph

Daily Weather History Graph

Search for Another Location

Airport:

Trip Planner

Search our weather history database for the weather conditions in past years. The results will help you decide how hot, cold, wet, or windy it might be!

Date:

Astronomy

Jan. 23, 2013 Rise Set
Actual Time 7:24 AM EST 5:19 PM EST
Civil Twilight 6:55 AM EST 5:48 PM EST
Nautical Twilight 6:22 AM EST 6:20 PM EST
Astronomical Twilight 5:50 AM EST 6:52 PM EST
Moon 2:27 PM EST (1/23) 4:34 AM EST (1/23)
Length of Visible Light 10h 52m
Length of Day
9h 54m
Waxing Gibbous, 89% of the Moon is Illuminated
Jan 23
Waxing Gibbous
Jan 26
Full
Feb 3
Last Quarter
Feb 10
New
Feb 17
First Quarter

Hourly Weather History & Observations

Time (EST) Temp. Windchill Dew Point Humidity Pressure Visibility Wind Dir Wind Speed Gust Speed Precip Events Conditions
12:53 AM 12.0 °F - -0.9 °F 56% 30.29 in 10.0 mi Calm Calm - N/A   Overcast
1:53 AM 10.9 °F - -0.9 °F 59% 30.29 in 10.0 mi Calm Calm - N/A   Clear
2:53 AM 12.0 °F 4.1 °F -2.0 °F 53% 30.30 in 10.0 mi SSW 4.6 mph - N/A   Mostly Cloudy
3:53 AM 10.9 °F 4.7 °F -2.0 °F 56% 30.29 in 10.0 mi Variable 3.5 mph - N/A   Mostly Cloudy
4:53 AM 10.9 °F 2.9 °F -0.9 °F 59% 30.29 in 10.0 mi SW 4.6 mph - N/A   Clear
5:53 AM 10.9 °F 2.9 °F -2.0 °F 56% 30.30 in 10.0 mi WSW 4.6 mph - N/A   Clear
6:53 AM 10.9 °F - -2.0 °F 56% 30.32 in 10.0 mi Calm Calm - N/A   Clear
7:53 AM 10.0 °F 0.4 °F -2.9 °F 56% 30.33 in 10.0 mi West 5.8 mph - N/A   Clear
8:53 AM 10.9 °F 1.4 °F -4.0 °F 51% 30.34 in 10.0 mi Variable 5.8 mph - N/A   Clear
10:53 AM 14.0 °F 1.2 °F -4.0 °F 45% 30.35 in 10.0 mi WNW 10.4 mph 18.4 mph N/A   Mostly Cloudy
12:53 PM 18.0 °F 7.7 °F -2.9 °F 40% 30.26 in 10.0 mi WSW 8.1 mph 17.3 mph N/A   Partly Cloudy
1:53 PM 19.9 °F 12.1 °F -2.9 °F 37% 30.25 in 10.0 mi Variable 5.8 mph - N/A   Overcast
2:53 PM 21.0 °F 11.4 °F -2.9 °F 35% 30.22 in 10.0 mi West 8.1 mph - N/A   Mostly Cloudy
4:53 PM 19.9 °F 11.1 °F -4.0 °F 35% 30.22 in 10.0 mi Variable 6.9 mph - N/A   Overcast
5:53 PM 19.9 °F - -4.0 °F 35% 30.22 in 10.0 mi Calm Calm - N/A   Overcast
6:53 PM 19.9 °F - -2.9 °F 37% 30.21 in 10.0 mi Calm Calm - N/A   Overcast
7:53 PM 19.0 °F - -2.0 °F 40% 30.21 in 10.0 mi Calm Calm - N/A   Overcast
8:53 PM 19.0 °F - -2.9 °F 38% 30.19 in 10.0 mi Calm Calm - N/A   Overcast
9:53 PM 19.0 °F - -0.0 °F 43% 30.19 in 10.0 mi Calm Calm - N/A   Overcast
10:53 PM 19.0 °F - -0.0 °F 43% 30.18 in 10.0 mi Calm Calm - N/A   Overcast
11:53 PM 17.1 °F 10.0 °F 1.9 °F 52% 30.17 in 10.0 mi ENE 4.6 mph - N/A   Overcast